Location: Chuathbaluk
(61.5726°N, 159.2454°W)
Time: 01:59:26
(UTC+00:00)

TIGRISAT - Pass Details

Date: 22 January 2021
Orbit: 605 x 688 km, 97.7° (Epoch: 05 March)

Event Time Altitude Azimuth Distance (km) Brightness Sun altitude
Rises 18:24:00 0° 201° (SSW) 2,871 ? -6.4°
Reaches altitude 10° 18:26:31 10° 216° (SW) 1,980 ? -6.2°
Maximum altitude 18:30:01 24° 271° (W) 1,306 ? -5.8°
Drops below altitude 10° 18:33:36 10° 325° (NW) 2,025 ? -5.5°
Enters shadow 18:36:09 - 339° (NNW) 2,936 ? -5.2°
